User: anonymous   Login
Location: Phoenix
(33.4480°N, 112.0730°W)
Time: 22:03:15
(UTC-07:00)
Language:

Hubble Space Telescope - Orbit

View from above orbital plane
View from above orbital plane
View from above satellite
View from above satellite

Ground track
Ground track

The orbit data is extracted from the following two-line orbital elements,

1 20580U 90037B   16242.87403311  .00000848  00000-0  41846-4 0  9993
2 20580  28.4696 132.0732 0002607 280.7670 156.7810 15.08468881246240
Epoch (UTC): 29 August 2016 20:58:36
Eccentricity: 0.0002607
inclination: 28.4696°
perigee height: 539 km
apogee height: 542 km
right ascension of ascending node: 132.0732°
argument of perigee: 280.7670°
revolutions per day: 15.08468881
mean anomaly at epoch: 156.7810°
orbit number at epoch: 24624

The dashed part of the orbit path shows where the satellite is in the earth's shadow,  

DLR